TimeCDT,TemperatureF,Dew PointF,Humidity,Sea Level PressureIn,VisibilityMPH,Wind Direction,Wind SpeedMPH,Gust SpeedMPH,PrecipitationIn,Events,Conditions,WindDirDegrees,DateUTC
12:14 AM,10.4,8.6,92,30.30,7.0,Calm,Calm,-,N/A,,Clear,0,2013-03-27 05:14:00
12:34 AM,11.3,10.0,95,30.30,1.0,Calm,Calm,-,N/A,,Mist,0,2013-03-27 05:34:00
12:54 AM,12.4,11.3,95,30.31,0.5,Calm,Calm,-,N/A,Fog,Light Freezing Fog,0,2013-03-27 05:54:00
1:13 AM,10.9,9.5,94,30.31,5.0,Calm,Calm,-,N/A,,Clear,0,2013-03-27 06:13:00
1:34 AM,10.9,9.1,92,30.31,2.0,Calm,Calm,-,N/A,,Clear,0,2013-03-27 06:34:00
1:54 AM,10.0,8.4,93,30.31,0.5,Calm,Calm,-,N/A,Fog,Light Freezing Fog,0,2013-03-27 06:54:00
2:13 AM,9.9,8.4,94,30.30,0.2,Calm,Calm,-,N/A,Fog,Light Freezing Fog,0,2013-03-27 07:13:00
2:34 AM,8.6,6.6,92,30.30,0.5,Calm,Calm,-,N/A,Fog,Light Freezing Fog,0,2013-03-27 07:34:00
2:54 AM,7.7,5.7,92,30.30,0.8,Calm,Calm,-,N/A,,Mist,0,2013-03-27 07:54:00
3:01 AM,7.9,5.7,91,30.30,1.0,Calm,Calm,-,N/A,,Mist,0,2013-03-27 08:01:00
3:25 AM,6.8,5.0,92,30.30,7.0,Calm,Calm,-,N/A,,Clear,0,2013-03-27 08:25:00
3:45 AM,5.0,3.2,92,30.31,10.0,Calm,Calm,-,N/A,,Clear,0,2013-03-27 08:45:00
4:05 AM,5.0,3.2,92,30.31,10.0,Calm,Calm,-,N/A,,Clear,0,2013-03-27 09:05:00
4:25 AM,6.8,3.2,85,30.31,10.0,Calm,Calm,-,N/A,,Clear,0,2013-03-27 09:25:00
4:45 AM,6.8,5.0,92,30.31,10.0,Calm,Calm,-,N/A,,Clear,0,2013-03-27 09:45:00
5:05 AM,5.0,3.2,92,30.31,10.0,Calm,Calm,-,N/A,,Clear,0,2013-03-27 10:05:00
5:25 AM,8.6,6.8,92,30.31,0.5,Calm,Calm,-,N/A,,Unknown,0,2013-03-27 10:25:00
5:45 AM,5.0,1.4,85,30.30,7.0,Calm,Calm,-,N/A,,Clear,0,2013-03-27 10:45:00
6:05 AM,5.0,3.2,92,30.31,7.0,Calm,Calm,-,N/A,,Clear,0,2013-03-27 11:05:00
6:25 AM,6.8,5.0,92,30.30,7.0,Calm,Calm,-,N/A,,Clear,0,2013-03-27 11:25:00
6:45 AM,5.0,1.4,85,30.30,10.0,Calm,Calm,-,N/A,,Clear,0,2013-03-27 11:45:00
7:05 AM,6.8,3.2,85,30.31,10.0,Calm,Calm,-,N/A,,Clear,0,2013-03-27 12:05:00
7:25 AM,5.0,3.2,92,30.31,10.0,Calm,Calm,-,N/A,,Clear,0,2013-03-27 12:25:00
7:45 AM,5.0,1.4,85,30.31,10.0,Calm,Calm,-,N/A,,Clear,0,2013-03-27 12:45:00
8:05 AM,5.0,3.2,92,30.32,10.0,Calm,Calm,-,N/A,,Clear,0,2013-03-27 13:05:00
8:25 AM,7.2,4.6,89,30.32,5.0,Calm,Calm,-,N/A,,Clear,0,2013-03-27 13:25:00
8:32 AM,7.7,5.4,90,30.32,5.0,Calm,Calm,-,N/A,,Clear,0,2013-03-27 13:32:00
8:54 AM,10.2,7.9,90,30.32,7.0,Calm,Calm,-,N/A,,Clear,0,2013-03-27 13:54:00
9:14 AM,13.8,12.0,93,30.33,7.0,Calm,Calm,-,N/A,,Clear,0,2013-03-27 14:14:00
9:34 AM,16.7,15.3,94,30.33,10.0,Calm,Calm,-,N/A,,Clear,0,2013-03-27 14:34:00
9:53 AM,17.8,16.2,93,30.33,7.0,Calm,Calm,-,N/A,,Clear,0,2013-03-27 14:53:00
10:14 AM,20.8,19.8,96,30.34,10.0,Calm,Calm,-,N/A,,Clear,0,2013-03-27 15:14:00
10:34 AM,23.9,23.0,96,30.34,10.0,Calm,Calm,-,N/A,,Clear,0,2013-03-27 15:34:00
10:54 AM,24.8,23.0,93,30.34,10.0,ESE,3.5,-,N/A,,Clear,120,2013-03-27 15:54:00
11:14 AM,26.8,21.6,81,30.34,10.0,ESE,3.5,-,N/A,,Clear,120,2013-03-27 16:14:00
11:34 AM,29.5,20.1,68,30.34,10.0,Calm,Calm,-,N/A,,Clear,0,2013-03-27 16:34:00
11:51 AM,30.9,20.8,66,30.34,10.0,Calm,Calm,-,N/A,,Clear,0,2013-03-27 16:51:00
12:14 PM,32.0,21.7,66,30.34,10.0,SE,4.6,-,N/A,,Clear,130,2013-03-27 17:14:00
12:34 PM,32.4,22.1,66,30.34,10.0,SE,3.5,-,N/A,,Clear,140,2013-03-27 17:34:00
12:54 PM,32.9,22.3,65,30.34,10.0,SE,3.5,-,N/A,,Clear,130,2013-03-27 17:54:00
1:14 PM,33.4,21.9,63,30.34,10.0,SE,5.8,-,N/A,,Clear,130,2013-03-27 18:14:00
1:31 PM,33.8,22.5,63,30.34,10.0,ESE,5.8,-,N/A,,Clear,120,2013-03-27 18:31:00
1:54 PM,33.8,22.3,63,30.34,10.0,SE,4.6,-,N/A,,Scattered Clouds,130,2013-03-27 18:54:00
2:14 PM,34.7,21.7,59,30.33,10.0,SE,4.6,-,N/A,,Scattered Clouds,130,2013-03-27 19:14:00
2:34 PM,34.3,21.9,60,30.33,10.0,SE,3.5,-,N/A,,Clear,130,2013-03-27 19:34:00
2:54 PM,34.7,21.0,57,30.33,10.0,ESE,4.6,-,N/A,,Scattered Clouds,120,2013-03-27 19:54:00
3:14 PM,34.7,20.8,57,30.32,10.0,SE,3.5,-,N/A,,Clear,130,2013-03-27 20:14:00
3:34 PM,34.7,21.0,57,30.32,10.0,ESE,3.5,-,N/A,,Clear,110,2013-03-27 20:34:00
3:51 PM,34.7,21.7,59,30.31,10.0,ESE,4.6,-,N/A,,Scattered Clouds,120,2013-03-27 20:51:00
4:14 PM,34.7,22.5,61,30.31,10.0,ESE,4.6,-,N/A,,Scattered Clouds,120,2013-03-27 21:14:00
4:34 PM,34.9,21.7,59,30.31,10.0,Calm,Calm,-,N/A,,Clear,0,2013-03-27 21:34:00
4:54 PM,35.1,21.7,58,30.30,10.0,East,3.5,-,N/A,,Clear,90,2013-03-27 21:54:00
5:14 PM,35.2,21.4,57,30.30,10.0,East,3.5,-,N/A,,Clear,100,2013-03-27 22:14:00
5:34 PM,35.1,21.6,58,30.31,10.0,East,4.6,-,N/A,,Clear,100,2013-03-27 22:34:00
5:54 PM,35.1,21.2,57,30.31,10.0,East,4.6,-,N/A,,Clear,90,2013-03-27 22:54:00
6:13 PM,34.9,21.2,57,30.30,10.0,East,5.8,-,N/A,,Clear,80,2013-03-27 23:13:00
6:34 PM,34.7,21.4,58,30.30,10.0,ENE,3.5,-,N/A,,Clear,70,2013-03-27 23:34:00
6:54 PM,34.5,20.3,56,30.30,10.0,East,4.6,-,N/A,,Clear,80,2013-03-27 23:54:00
7:14 PM,33.8,20.1,57,30.30,10.0,East,3.5,-,N/A,,Clear,80,2013-03-28 00:14:00
7:34 PM,33.1,20.1,59,30.30,10.0,East,3.5,-,N/A,,Clear,80,2013-03-28 00:34:00
7:54 PM,32.2,20.1,61,30.30,10.0,ENE,3.5,-,N/A,,Clear,60,2013-03-28 00:54:00
8:13 PM,32.0,19.6,60,30.31,10.0,ENE,3.5,-,N/A,,Clear,70,2013-03-28 01:13:00
8:33 PM,28.0,20.1,72,30.31,10.0,Calm,Calm,-,N/A,,Clear,0,2013-03-28 01:33:00
8:54 PM,27.3,20.5,75,30.31,10.0,East,3.5,-,N/A,,Clear,80,2013-03-28 01:54:00
9:14 PM,25.5,19.4,78,30.32,10.0,Calm,Calm,-,N/A,,Clear,0,2013-03-28 02:14:00
9:34 PM,25.9,19.2,76,30.32,10.0,East,4.6,-,N/A,,Clear,90,2013-03-28 02:34:00
9:50 PM,24.6,19.0,79,30.32,10.0,East,3.5,-,N/A,,Clear,90,2013-03-28 02:50:00
10:14 PM,24.8,18.5,77,30.33,10.0,Calm,Calm,-,N/A,,Clear,0,2013-03-28 03:14:00
10:34 PM,23.5,18.0,79,30.33,10.0,Calm,Calm,-,N/A,,Clear,0,2013-03-28 03:34:00
10:54 PM,21.6,17.6,85,30.33,10.0,Calm,Calm,-,N/A,,Clear,0,2013-03-28 03:54:00
11:14 PM,21.7,18.3,87,30.33,10.0,Calm,Calm,-,N/A,,Clear,0,2013-03-28 04:14:00
11:34 PM,21.0,18.0,88,30.33,10.0,Calm,Calm,-,N/A,,Clear,0,2013-03-28 04:34:00
11:54 PM,21.0,17.6,87,30.33,10.0,Calm,Calm,-,N/A,,Clear,0,2013-03-28 04:54:00